Weather History for Juneau, WI

Change the Weather History Date:

Monday, May 20, 2013

  Actual Average Record
Temperature  
Mean Temperature 71 °F -  
Max Temperature 81 °F 63 °F 91 °F (1977)
Min Temperature 62 °F 45 °F 35 °F (2006)
Cooling Degree Days 6    
Growing Degree Days 21 (Base 50)    
Moisture  
Dew Point 53 °F    
Average Humidity 52    
Maximum Humidity 87    
Minimum Humidity 32    
Precipitation  
Precipitation 0.01 in - - ()
Sea Level Pressure  
Sea Level Pressure 29.72 in    
Wind  
Wind Speed 14 mph (SSE)    
Max Wind Speed 25 mph    
Max Gust Speed 31 mph    
Visibility 10 miles    
Events Rain    
Averages and records for this station are not official NWS values.
T = Trace of Precipitation, MM = Missing Value Source: NWS Daily Summary

Daily Weather History Graph

Daily Weather History Graph

Search for Another Location

Airport:

Trip Planner

Search our weather history database for the weather conditions in past years. The results will help you decide how hot, cold, wet, or windy it might be!

Date:

Astronomy

May. 20, 2013 Rise Set
Actual Time 5:25 AM CDT 8:18 PM CDT
Civil Twilight 4:51 AM CDT 8:51 PM CDT
Nautical Twilight 4:09 AM CDT 9:34 PM CDT
Astronomical Twilight 3:19 AM CDT 10:24 PM CDT
Moon 3:17 PM CDT (5/20) 2:29 AM CDT (5/20)
Length of Visible Light 16h 00m
Length of Day
14h 52m
Waxing Gibbous, 75% of the Moon is Illuminated
May 20
Waxing Gibbous
May 24
Full
May 31
Last Quarter
Jun 8
New
Jun 16
First Quarter

Hourly Weather History & Observations

Time (CDT) Temp. Dew Point Humidity Pressure Visibility Wind Dir Wind Speed Gust Speed Precip Events Conditions
12:15 AM 76.8 °F 45.1 °F 32% 29.71 in 10.0 mi SE 16.1 mph 24.2 mph N/A   Clear
12:35 AM 73.4 °F 49.6 °F 43% 29.72 in 10.0 mi SE 17.3 mph 25.3 mph N/A   Clear
12:55 AM 71.6 °F 51.8 °F 50% 29.73 in 10.0 mi SE 13.8 mph 20.7 mph N/A   Clear
1:15 AM 71.2 °F 52.7 °F 52% 29.75 in 10.0 mi SE 13.8 mph - N/A   Clear
1:35 AM 71.2 °F 53.2 °F 53% 29.74 in 10.0 mi SSE 11.5 mph - N/A   Scattered Clouds
1:55 AM 71.2 °F 54.5 °F 55% 29.75 in 10.0 mi SE 10.4 mph - N/A   Scattered Clouds
2:15 AM 72.0 °F 55.2 °F 55% 29.81 in 10.0 mi WSW 25.3 mph 29.9 mph N/A   Mostly Cloudy
2:35 AM 66.2 °F 56.3 °F 70% 29.79 in 10.0 mi West 9.2 mph 26.5 mph N/A   Overcast
3:15 AM 63.5 °F 56.8 °F 79% 29.75 in 10.0 mi ENE 4.6 mph - N/A   Clear
3:35 AM 63.0 °F 56.7 °F 80% 29.74 in 10.0 mi East 6.9 mph - N/A   Clear
3:55 AM 63.5 °F 57.4 °F 80% 29.73 in 10.0 mi East 5.8 mph - N/A   Mostly Cloudy
4:35 AM 62.2 °F 58.1 °F 86% 29.72 in 10.0 mi ESE 6.9 mph - N/A   Clear
4:55 AM 62.2 °F 58.3 °F 87% 29.71 in 10.0 mi ESE 6.9 mph - N/A   Clear
5:15 AM 62.6 °F 58.3 °F 86% 29.72 in 10.0 mi ESE 8.1 mph - N/A   Clear
5:35 AM 62.8 °F 58.1 °F 85% 29.72 in 10.0 mi ESE 8.1 mph - N/A   Clear
5:55 AM 63.0 °F 58.5 °F 85% 29.71 in 10.0 mi ESE 9.2 mph - N/A   Clear
6:15 AM 64.0 °F 58.6 °F 83% 29.70 in 10.0 mi ESE 8.1 mph - N/A   Clear
6:35 AM 65.5 °F 58.1 °F 77% 29.71 in 10.0 mi ESE 12.7 mph - N/A   Clear
7:15 AM 68.0 °F 57.0 °F 68% 29.75 in 10.0 mi SSE 12.7 mph - N/A   Clear
7:35 AM 69.3 °F 55.6 °F 62% 29.75 in 10.0 mi SSE 15.0 mph 19.6 mph N/A   Clear
7:55 AM 70.7 °F 54.9 °F 57% 29.74 in 10.0 mi SSE 12.7 mph 21.9 mph N/A   Scattered Clouds
8:15 AM 70.7 °F 55.2 °F 58% 29.72 in 10.0 mi SSE 13.8 mph - N/A   Clear
8:35 AM 70.7 °F 55.4 °F 58% 29.72 in 10.0 mi SSE 11.5 mph - N/A   Clear
9:15 AM 72.7 °F 54.7 °F 53% 29.73 in 10.0 mi SSE 16.1 mph 21.9 mph N/A   Scattered Clouds
9:35 AM 73.6 °F 56.1 °F 54% 29.73 in 10.0 mi SSE 13.8 mph 20.7 mph N/A   Scattered Clouds
9:55 AM 74.3 °F 54.5 °F 50% 29.73 in 10.0 mi South 17.3 mph - N/A   Clear
10:35 AM 73.4 °F 55.0 °F 52% 29.75 in 10.0 mi SSW 20.7 mph 26.5 mph N/A   Clear
10:55 AM 74.7 °F 54.3 °F 49% 29.75 in 10.0 mi South 20.7 mph 24.2 mph N/A   Clear
11:15 AM 75.2 °F 55.0 °F 49% 29.75 in 10.0 mi South 17.3 mph 24.2 mph N/A   Scattered Clouds
11:35 AM 75.9 °F 53.4 °F 45% 29.75 in 10.0 mi SSW 16.1 mph 23.0 mph N/A   Clear
11:55 AM 76.1 °F 51.3 °F 42% 29.74 in 10.0 mi SSW 16.1 mph - N/A   Clear
12:15 PM 76.5 °F 50.0 °F 39% 29.74 in 10.0 mi SSW 13.8 mph - N/A   Clear
12:35 PM 77.0 °F 51.4 °F 41% 29.74 in 10.0 mi South 9.2 mph - N/A   Clear
12:55 PM 77.4 °F 50.9 °F 39% 29.74 in 10.0 mi South 16.1 mph - N/A   Clear
1:15 PM 78.6 °F 51.3 °F 38% 29.75 in 10.0 mi South 15.0 mph 19.6 mph N/A   Clear
1:55 PM 79.0 °F 50.0 °F 36% 29.74 in 10.0 mi South 19.6 mph 23.0 mph N/A   Clear
2:15 PM 79.7 °F 50.9 °F 37% 29.73 in 10.0 mi South 19.6 mph 23.0 mph N/A   Clear
2:35 PM 79.7 °F 50.0 °F 35% 29.73 in 10.0 mi SSW 20.7 mph 26.5 mph N/A   Clear
2:55 PM 80.2 °F 51.4 °F 37% 29.73 in 10.0 mi SSW 24.2 mph 27.6 mph N/A   Clear
3:15 PM 80.2 °F 49.8 °F 34% 29.72 in 10.0 mi SSW 23.0 mph 31.1 mph N/A   Clear
3:35 PM 80.6 °F 50.5 °F 35% 29.73 in 10.0 mi SSW 25.3 mph 28.8 mph N/A   Clear
3:55 PM 80.6 °F 49.1 °F 33% 29.72 in 10.0 mi SSW 23.0 mph 28.8 mph N/A   Clear
4:15 PM 80.6 °F 49.6 °F 34% 29.72 in 10.0 mi SSW 20.7 mph 28.8 mph N/A   Clear
4:35 PM 80.6 °F 49.6 °F 34% 29.71 in 10.0 mi South 18.4 mph - N/A   Clear
4:55 PM 80.8 °F 49.8 °F 34% 29.70 in 10.0 mi SSW 19.6 mph 26.5 mph N/A   Clear
5:15 PM 80.8 °F 50.0 °F 34% 29.70 in 10.0 mi SSW 18.4 mph 26.5 mph N/A   Clear
5:35 PM 80.6 °F 48.6 °F 33% 29.70 in 10.0 mi SSW 18.4 mph 23.0 mph N/A   Clear
5:55 PM 80.4 °F 50.5 °F 35% 29.70 in 10.0 mi SSW 15.0 mph 21.9 mph N/A   Clear
6:15 PM 80.2 °F 50.9 °F 36% 29.69 in 10.0 mi SSW 11.5 mph - N/A   Clear
6:35 PM 79.7 °F 52.9 °F 39% 29.69 in 10.0 mi SSW 10.4 mph - N/A   Clear
6:55 PM 79.7 °F 50.5 °F 36% 29.69 in 10.0 mi South 13.8 mph - N/A   Clear
7:15 PM 78.6 °F 52.5 °F 40% 29.70 in 10.0 mi South 9.2 mph - N/A   Clear
7:35 PM 77.2 °F 53.2 °F 43% 29.70 in 10.0 mi South 11.5 mph - N/A   Clear
7:55 PM 76.3 °F 51.4 °F 42% 29.70 in 10.0 mi South 11.5 mph - N/A   Clear
8:15 PM 75.7 °F 50.0 °F 40% 29.70 in 10.0 mi South 11.5 mph - N/A   Clear
8:35 PM 74.3 °F 50.5 °F 43% 29.70 in 10.0 mi South 9.2 mph - N/A   Clear
8:55 PM 73.2 °F 50.4 °F 44% 29.69 in 10.0 mi South 6.9 mph - N/A   Clear
9:15 PM 72.0 °F 50.7 °F 47% 29.70 in 10.0 mi South 6.9 mph - N/A   Clear
9:35 PM 71.2 °F 51.3 °F 49% 29.71 in 10.0 mi South 8.1 mph - N/A   Clear
9:55 PM 71.2 °F 52.2 °F 51% 29.72 in 10.0 mi South 6.9 mph - N/A   Mostly Cloudy
10:15 PM 71.6 °F 52.7 °F 51% 29.71 in 10.0 mi SSE 4.6 mph - N/A   Overcast
10:35 PM 68.9 °F 54.0 °F 59% 29.69 in 10.0 mi ESE 6.9 mph - N/A   Scattered Clouds
10:55 PM 70.0 °F 53.8 °F 56% 29.69 in 10.0 mi ESE 5.8 mph - N/A   Mostly Cloudy
11:15 PM 69.8 °F 54.9 °F 59% 29.68 in 10.0 mi ESE 6.9 mph - N/A   Mostly Cloudy
11:35 PM 69.1 °F 56.1 °F 63% 29.67 in 10.0 mi ESE 6.9 mph - N/A Rain Light Rain
11:55 PM 69.6 °F 55.9 °F 62% 29.67 in 10.0 mi SSE 9.2 mph - N/A   Mostly Cloudy